Regional Weather Roundup
Issued by NWS

Home | Current Version | Previous Version | Text Only | Print | Product List | Glossary On
Versions: 1 2 3 4 5 6 7 8 9 10 11 12 13 14 15 16 17 18 19 20 21 22 23 24 25 26 27 28 29 30 31 32 33 34 35 36 37 38 39 40 41 42 43 44 45 46 47 48 49 50
000
ASUS43 KMPX 171510
RWRMN
WEATHER ROUNDUP FOR MINNESOTA
NATIONAL WEATHER SERVICE TWIN CITIES/CHANHASSEN MN
900 AM CST WED JAN 17 2018


NOTE: "FAIR" INDICATES FEW OR NO CLOUDS BELOW 12,000 FEET WITH NO
SIGNIFICANT WEATHER AND/OR OBSTRUCTIONS TO VISIBILITY. N/A MEANS
CURRENT SKY AND/OR WEATHER CONDITIONS ARE NOT AVAILABLE.

MNZ060>063-068>070-171600-
   Twin Cities Metro

CITY           SKY/WX    TMP DP  RH WIND       PRES   REMARKS
TWIN CITIES    FAIR       9   1  70 SW7       30.30F WCI  -2
ST PAUL        FAIR       2  -2  83 S10       30.32F WCI -14
CRYSTAL        FAIR       8  -3  61 S12       30.28F WCI  -7
BLAINE         PTCLDY     9   1  72 SW13      30.27F WCI  -7
LAKEVILLE      FAIR      10   1  67 SW3       30.29F
EDEN PRAIRIE   FAIR       7  -1  70 SW9       30.28F WCI  -7
SOUTH ST PAUL  FAIR       4  -2  77 SE3       30.31F
LAKE ELMO      FAIR       5   0  78 S8        30.30F WCI  -8
$$
MNZ001>005-007-008-013>017-022>024-027-028-171600-
   Northwest Minnesota

CITY           SKY/WX    TMP DP  RH WIND       PRES   REMARKS
BEMIDJI        FAIR      16   1  51 SW12      29.99F WCI   3
HALLOCK        FAIR       5   0  78 S18       29.93S WCI -15
ROSEAU         FAIR      10   3  72 SW17      29.89F WCI  -7
WARROAD        SNOW       9   1  72 SW18G25   29.88F VSB 1/4 WCI -10
THIEF RVR FALL FAIR       6   0  76 SW22      29.98F WCI -15
CROOKSTON      FAIR       7   1  78 S21       30.04S WCI -13
FOSSTON        FAIR       9   0  66 S18       30.03F HAZE    WCI -10
DETROIT LAKES  FAIR      10   1  67 SW6       30.10R WCI   1
MOORHEAD       FAIR       5  -2  72 S16       30.11F WCI -14
PARK RAPIDS    FAIR       5  -3  69 SW6       30.06F WCI  -6
MAHNOMEN       FAIR       8   1  70 S20       30.05F WCI -11
$$
MNZ006-009>011-018-025>026-171600-
   North Central Minnesota

CITY           SKY/WX    TMP DP  RH WIND       PRES   REMARKS
BAUDETTE       FAIR      12   1  61 SW9       29.88F WCI   0
FLAG ISLAND    FAIR       7   0  72 S8        29.84F WCI  -6
INTL FALLS     FAIR      15   1  53 SW14G20   29.89F WCI   0
WASKISH        FAIR      14   3  62 SW13      29.94F WCI   0
BIG FORK       FAIR      12   0  57 S10       29.97F WCI  -1
LONGVILLE      FAIR       7  -2  66 S7        30.07F WCI  -5
GRAND RAPIDS   FAIR       9  -1  64 S8        30.06F WCI  -3
CRANE LAKE     FAIR      10   0  61 S7        29.96F WCI   0
ORR            FAIR      10  -2  56 S5        29.93S WCI   2
COOK           FAIR      12   1  62 SW10G17   29.97F WCI  -1
WALKER         FAIR      12  -2  53 SW13      30.03F WCI  -3
$$
MNZ012-019>021-037-171600-
   Northeast Minnesota

CITY           SKY/WX    TMP DP  RH WIND       PRES   REMARKS
DULUTH         FAIR       5  -2  72 W16       30.06F WCI -14
ELY            FAIR       9   0  66 SW10G20   29.95F WCI  -6
HIBBING        FAIR       5  -1  76 S6        30.02F WCI  -6
EVELETH        FAIR       6  -4  65 SW10      30.02F WCI  -9
DULUTH HARBOR  FAIR       9   1  72 SW15      30.15F WCI  -8
TWO HARBORS    FAIR      10   1  67 SW9       30.05F WCI  -2
SILVER BAY     FAIR      10   1  67 SW8       30.01F WCI  -1
GRAND MARAIS     N/A     20   9  62 W12G22    30.00F WCI   8
G MARAIS ARPRT FAIR       9  -2  61 SW8       29.90F WCI  -4
$$
MNZ029>031-032-039>041-046>048-054>057-064-171600-
   West Central Minnesota

CITY           SKY/WX    TMP DP  RH WIND       PRES   REMARKS
FERGUS FALLS   FAIR       7   0  72 S13       30.17F WCI  -9
WHEATON        CLOUDY    10   1  67 S9        30.17F WCI  -2
MORRIS         CLOUDY     7   0  72 S12       30.17F WCI  -9
ALEXANDRIA     FAIR       8   0  69 SW16      30.14F WCI -10
ELBOW LAKE     FAIR       6   0  74 S13       30.15F HAZE    WCI -10
WADENA         FAIR       7   0  72 S7        30.09F WCI  -5
GLENWOOD       FAIR       7   0  72 S16       30.17F WCI -11
APPLETON       CLOUDY    10   1  67 S7        30.22F WCI   0
BENSON         CLOUDY     7   0  72 S8        30.23F WCI  -6
ORTONVILLE     CLOUDY    10   1  67 S7        30.18F WCI   0
MADISON        CLOUDY    16   5  62 SW10      30.22F WCI   3
WILLMAR        FAIR       7   1  78 S3        30.25F
$$
MNZ033>034-036-042>043-049>051-058-059-171600-
   Central Minnesota

CITY           SKY/WX    TMP DP  RH WIND       PRES   REMARKS
ST CLOUD       FAIR       8   1  73 SW13      30.22F WCI  -8
SAUK CENTRE      N/A      8   0  71 SW13      30.18F WCI  -8
PAYNESVILLE    FAIR       9   3  75 SW12      30.22S WCI  -6
AITKIN         FAIR       7  -2  66 S8        30.11F WCI  -6
PINE RIVER     FAIR       9  -2  61 SW7       30.13F WCI  -3
BRAINERD       FAIR       7  -2  66 S12       30.13F WCI  -8
STAPLES        FAIR       5  -2  72 S7        30.11F WCI  -7
LONG PRAIRIE   FAIR       9   0  66 S12       30.16S WCI  -6
LITTLE FALLS   FAIR       9  -4  56 S7        30.19S WCI  -3
LITCHFIELD     FAIR       9   3  78 SW7       30.24S WCI  -3
BUFFALO        FAIR       6  -1  74 S8        30.27F WCI  -7
MAPLE LAKE     FAIR       8   2  75 MISG      30.26S
HUTCHINSON     FAIR      11   3  71 SW10G17   30.26F WCI  -3
$$
MNZ037-044-045-052-053-171600-
   East Central Minnesota

CITY           SKY/WX    TMP DP  RH WIND       PRES   REMARKS
PRINCETON      FAIR       7   1  78 S6        30.23S WCI  -3
MORA           FAIR       7   1  78 SW9       30.22F WCI  -7
CAMBRIDGE      FAIR       9   0  66 S7        30.25F WCI  -3
RUSH CITY      FAIR       6  -1  73 S9        30.24F WCI  -8
MOOSE LAKE     FAIR       5  -2  72 SW10      30.14F WCI -10
HINCKLEY       FAIR       5   0  78 SW10      30.21F WCI -10
CLOQUET        FAIR       3  -4  72 SW12      30.09F WCI -13
MCGREGOR       FAIR      10   1  67 SW10G17   30.12F WCI  -3
$$
MNZ071>073-080-081-089-090-097-098-171600-
   Southwest Minnesota

CITY           SKY/WX    TMP DP  RH WIND       PRES   REMARKS
MONTEVIDEO     CLOUDY    10   3  72 SW10      30.23F WCI  -3
GRANITE FALLS  CLOUDY    13   5  69 S12       30.27F WCI   0
CANBY          CLOUDY    14   4  63 SW18      30.23F WCI  -3
MARSHALL       CLOUDY    14   3  61 SW21G30   30.24F WCI  -4
REDWOOD FALLS  CLOUDY     9   1  70 SW10      30.27F WCI  -5
OLIVIA         CLOUDY    10   3  72 SW13      30.25F WCI  -5
PIPESTONE      CLOUDY     7   0  72 SW10      30.28S WCI  -8
WINDOM         CLOUDY    10  -6  48 SW18      30.29F WCI  -8
WORTHINGTON    CLOUDY     9   1  70 SW24G30   30.28F WCI -12
JACKSON        CLOUDY    10   1  67 SW21      30.32S WCI  -9
SLAYTON        CLOUDY     8   1  73 SW15      30.28F WCI  -9
$$
MNZ065>067-074>077-082>085-091>093-171600-
   South Central Minnesota

CITY           SKY/WX    TMP DP  RH WIND       PRES   REMARKS
MANKATO        FAIR       6   0  76 S10       30.32F WCI  -9
NEW ULM        CLOUDY    10   1  67 SW10      30.30F WCI  -3
ST JAMES       CLOUDY    10   3  72 S9G16     30.33F WCI  -2
FAIRMONT       CLOUDY    11   3  70 SW20      30.34F WCI  -7
GLENCOE        FAIR      10   3  72 SW8       30.27F WCI  -1
FARIBAULT      FAIR       9   1  72 S12       30.32F WCI  -6
OWATONNA       FAIR      10   1  67 SW15      30.32F WCI  -6
WASECA         FAIR      10   3  72 S16G22    30.34F WCI  -7
ALBERT LEA     FAIR       9   0  66 SW12G20   30.35F WCI  -6
$$
MNZ078>079-086>088-094>096-171600-
   Southeast Minnesota

CITY           SKY/WX    TMP DP  RH WIND       PRES   REMARKS
ROCHESTER      FAIR       7   0  73 SW20      30.34F WCI -13
RED WING       FAIR       1  -6  71 CALM      30.33F
STANTON        FAIR      10   1  67 SW13      30.31F WCI  -5
DODGE CENTER   FAIR       3  -2  78 SW16      30.32F WCI -16
WINONA         FAIR      10   3  72 SW3       30.39F
AUSTIN         FAIR       5   0  78 SW9       30.37F WCI  -9
PRESTON        FAIR       7  -2  66 SW14G25   30.37F WCI -10
$$
ABBREVIATIONS USED IN REMARKS
   TC - TEMPERATURES IN CELSIUS
  WCI - WIND CHILL INDEX
   HX - HEAT INDEX
  VSB - VISIBILITY
$$




USA.gov is the U.S. government's official web portal to all federal, state and local government web resources and services.